Location: Caltech
(34.1382°N, 118.1253°W)
Time: 19:34:06
(UTC-08:00)

Cosmos 1943 Rocket - Visible Passes

Search period start: 28 November 2014 00:00
Search period end: 08 December 2014 00:00
Orbit: 813 x 844 km, 71.0° (Epoch: 27 November)

Date Brightness Start Highest point End Pass type
(mag) Time Alt. Az. Time Alt. Az. Time Alt. Az.
28 Nov 2.2 05:01:56 10° SSW 05:07:35 86° ESE 05:13:14 10° NNE visible
29 Nov 2.3 04:42:55 10° SSW 04:48:32 75° ESE 04:54:09 10° NNE visible
30 Nov 2.5 04:23:55 10° S 04:29:29 65° ESE 04:35:03 10° NNE visible
30 Nov 3.6 06:10:21 10° W 06:13:42 16° NW 06:17:02 10° NNW visible
01 Dec 2.7 04:07:13 24° S 04:10:27 56° ESE 04:15:56 10° NNE visible
01 Dec 3.5 05:50:46 10° W 05:54:32 18° WNW 05:58:18 10° NNW visible
02 Dec 3.2 03:52:29 43° ENE 03:52:29 43° ENE 03:56:48 10° NNE visible
02 Dec 3.3 05:34:11 19° WNW 05:35:23 21° WNW 05:39:31 10° N visible
03 Dec 4.3 03:35:50 20° NE 03:35:50 20° NE 03:37:38 10° NE visible
03 Dec 3.4 05:17:29 22° NW 05:17:29 22° NW 05:20:41 10° N visible
04 Dec 3.9 05:00:09 17° NNW 05:00:09 17° NNW 05:01:48 10° N visible
05 Dec 4.3 04:42:30 12° N 04:42:30 12° N 04:42:54 10° N visible
